Regional Weather Roundup
Issued by NWS Kansas City/Pleasant Hill, MO

Home | Current Version | Previous Version | Graphics & Text | Print | Product List | Glossary Off
Versions: 1 2 3 4 5 6 7 8 9 10 11 12 13 14 15 16 17 18 19 20 21 22 23 24 25 26 27

000
ASUS43 KEAX 260910
RWREAX

WEATHER ROUNDUP FOR EASTERN KANSAS AND NORTHWEST MISSOURI
NATIONAL WEATHER SERVICE KANSAS CITY/PLEASANT HILL MO
400 AM CDT FRI AUG 26 2016

KSZ040-057-103>105-MOZ028-029-037-043-261000-
...KANSAS CITY METROPOLITAN AREA...

CITY           SKY/WX    TMP DP  RH WIND       PRES   REMARKS
K.C. INTL      LGT RAIN  68  64  87 NE6       30.09S
K.C. DOWNTOWN  LGT RAIN  71  68  90 SE6       30.08S
LEES SUMMIT    TSTM      69  69 100 NW7       30.11S FOG
OLATHE - IXD   TSTM      68  67  96 SE10      30.11S FOG
OLATHE - OJC   TSTM      68  68 100 NW7       30.10R FOG
LAWRENCE       CLOUDY    70  70 100 CALM      30.09R FOG

$$

MOZ001>008-011>017-020>025-030>033-038>040-044>046-053-054-261000-
...NORTHERN AND CENTRAL MISSOURI...

CITY           SKY/WX    TMP DP  RH WIND       PRES   REMARKS
ST. JOSEPH     LGT RAIN  67  64  90 NE5       30.10F FOG
MOSBY          CLOUDY    68  66  94 CALM      30.08F
WHITEMAN AFB   CLOUDY    70  70 100 N6        30.08F
CLINTON        CLOUDY    68  68 100 CALM      30.09F
SEDALIA        CLOUDY    74  72  93 N3        30.09F FOG
WARSAW         NOT AVBL
CHILLICOTHE      N/A     68  66  93 CALM      30.12
KIRKSVILLE     CLOUDY    68  65  90 N3        30.12S

$$

MOZ041-047>049-056>058-063>065-088>090-097-261000-
...EASTERN AND SOUTHERN MISSOURI...

CITY           SKY/WX    TMP DP  RH WIND       PRES   REMARKS
ST. LOUIS INTL FAIR      76  69  79 SE5       30.07R
SPIRIT OF STL  FAIR      73  71  93 S3        30.05R
COLUMBIA       FAIR      73  72  96 E3        30.08R
JEFFERSON CITY FAIR      73  72  96 N3        30.06S
ROLLA          FAIR      70  67  90 CALM      30.08R
OSAGE BEACH    FAIR      68  68 100 CALM      30.09R
SPRINGFIELD    FAIR      72  67  84 S6        30.07S
BRANSON        FAIR      72  68  88 CALM      30.10S
JOPLIN         FAIR      73  68  84 SW7       30.08R
WEST PLAINS    FAIR      74  71  91 NW3       30.11R

$$

IAZ060-094-KSZ022-034>040-054-083-096-NEZ052-066-093-261000-
...KANSAS...SOUTHEAST NEBRASKA AND IOWA...

CITY           SKY/WX    TMP DP  RH WIND       PRES   REMARKS
TOPEKA         TSTM      67  66  97 W3        30.09S
MANHATTAN      MOCLDY    67  62  84 E7        30.09F
EMPORIA        LGT RAIN  67  65  93 CALM      30.09S
CHANUTE        FAIR      69  66  90 E5        30.07F
WICHITA        LGT RAIN  71  67  87 SW10      30.08S
OMAHA          MOCLDY    60  57  89 N6        30.14S
LINCOLN        FAIR      60  57  89 CALM      30.15S
FALLS CITY     CLOUDY    64  62  93 N5        30.11F
LAMONI         MOCLDY    62  62 100 CALM      30.14R
DES MOINES     MOCLDY    65  61  87 N5        30.13S

$$





USA.gov is the U.S. government's official web portal to all federal, state and local government web resources and services.